DW9501 Weather Reports


time (UTC)temp
C
wind
direction
speed
KPH
gust
KPH
rain 1hr
cm
rain 24hr
cm
rain mn
cm
humidity
%
barometer
mb
20260505212105 10 265 1.6 6.4 0.00 0.00 0.00 77 1007.1
20260505211059 10 263 1.6 6.4 0.00 0.00 0.00 75 1007.1
20260505210050 10 284 1.6 6.4 0.00 0.00 0.00 76 1007.0
20260505205047 10 260 1.6 4.8 0.00 0.00 0.00 76 1007.1
20260505204057 10 293 1.6 4.8 0.00 0.00 0.00 78 1006.9
20260505203108 11 259 1.6 4.8 0.00 0.00 0.00 74 1007.0
20260505202116 11 263 0.0 1.6 0.00 0.00 0.00 76 1006.8
20260505201129 11 248 0.0 4.8 0.00 0.00 0.00 74 1006.6
20260505200117 11 264 0.0 0.0 0.00 0.00 0.00 76 1006.6
20260505195044 11 262 0.0 6.4 0.00 0.00 0.00 73 1006.8
20260505191844 13 234 3.2 9.7 0.00 0.00 0.00 57 1005.8
20260505185731 14 236 4.8 12.9 0.00 0.00 0.00 52 1005.5
20260505184709 15 87 3.2 14.5 0.00 0.00 0.00 52 1005.3
20260505183634 15 264 3.2 14.5 0.00 0.00 0.00 52 1005.2
20260505182608 15 260 3.2 8.0 0.00 0.00 0.00 53 1005.1
20260505181630 15 229 3.2 9.7 0.00 0.00 0.00 52 1004.8
20260505180620 15 288 3.2 11.3 0.00 0.00 0.00 53 1004.7
20260505175633 15 275 4.8 11.3 0.00 0.00 0.00 53 1004.4
20260505174643 16 256 4.8 11.3 0.00 0.00 0.00 53 1004.4
20260505173636 16 255 3.2 11.3 0.00 0.00 0.00 54 1004.1
20260505172608 16 277 1.6 8.0 0.00 0.00 0.00 57 1003.8
20260505171541 16 300 3.2 8.0 0.00 0.00 0.00 58 1003.8
20260505170541 16 305 3.2 11.3 0.00 0.00 0.00 58 1003.6
20260505165555 16 257 3.2 11.3 0.00 0.00 0.00 60 1003.4
20260505164543 16 298 3.2 8.0 0.00 0.00 0.00 62 1003.4
20260505163520 16 260 3.2 9.7 0.00 0.00 0.00 64 1003.4
20260505162529 15 172 3.2 9.7 0.00 0.00 0.00 67 1003.7
20260505161513 15 277 1.6 8.0 0.00 0.00 0.00 68 1003.8
20260505160440 15 240 1.6 6.4 0.00 0.00 0.00 71 1003.7
20260505151129 14 269 0.0 4.8 0.00 0.00 0.00 70 1003.1
20260505150132 14 254 0.0 4.8 0.00 0.00 0.00 69 1002.6
20260505140110 17 315 3.2 9.7 0.00 0.00 0.00 72 1001.4
20260505130132 17 234 0.0 6.4 0.00 0.00 0.00 73 1000.6
20260505122958 16 279 1.6 6.4 0.00 0.00 0.00 74 999.7
20260505122010 16 271 0.0 4.8 0.00 0.00 0.00 74 999.6
20260505120952 16 213 0.0 6.4 0.00 0.00 0.00 75 999.8
20260505114847 15 215 0.0 3.2 0.00 0.00 0.00 78 1000.0
20260505113824 15 256 0.0 0.0 0.00 0.00 0.00 79 999.8
20260505112807 15 219 0.0 1.6 0.00 0.00 0.00 79 999.6
20260505111754 15 212 0.0 1.6 0.00 0.00 0.00 79 999.5
20260505110809 15 253 1.6 4.8 0.00 0.00 0.00 79 999.5
20260505101734 15 252 1.6 11.3 0.00 0.00 0.00 79 998.8
20260505100728 15 207 1.6 11.3 0.00 0.00 0.00 79 998.7
20260505095751 15 219 0.0 4.8 0.00 0.00 0.00 78 998.6
20260505094806 15 182 0.0 3.2 0.00 0.00 0.00 77 998.4
20260505093751 15 174 0.0 4.8 0.00 0.00 0.00 76 998.3
20260505092804 15 228 0.0 4.8 0.00 0.00 0.00 76 998.4
20260505091812 16 252 0.0 3.2 0.00 0.00 0.00 76 998.5
20260505085615 16 224 0.0 3.2 0.00 0.00 0.00 75 998.4
20260505084612 16 165 0.0 1.6 0.00 0.00 0.00 73 998.2
20260505083547 16 209 1.6 6.4 0.00 0.00 0.00 72 998.3
20260505082609 17 249 1.6 8.0 0.00 0.00 0.00 72 998.5
20260505081534 17 200 3.2 12.9 0.00 0.00 0.00 72 998.5
20260505080546 17 184 3.2 12.9 0.00 0.00 0.00 71 998.8
20260505075611 17 220 1.6 9.7 0.00 0.00 0.00 71 998.8
20260505074550 17 228 1.6 8.0 0.00 0.00 0.00 71 998.8
20260505073607 17 180 0.0 8.0 0.00 0.00 0.00 70 998.9
20260505072622 17 261 1.6 11.3 0.00 0.00 0.00 70 998.9
20260505071623 17 95 3.2 11.3 0.00 0.00 0.00 69 998.8
20260505065519 17 228 1.6 8.0 0.00 0.00 0.00 69 998.8
20260505064501 17 181 1.6 12.9 0.00 0.00 0.00 70 998.9
20260505061234 15 185 0.0 1.6 0.00 0.00 0.00 74 999.3
20260505060220 15 212 0.0 3.2 0.00 0.00 0.00 74 999.4
20260505055222 15 260 0.0 0.0 0.00 0.00 0.00 74 999.6
20260505054218 15 219 0.0 0.0 0.00 0.00 0.00 74 999.5
20260505053234 15 219 0.0 1.6 0.00 0.00 0.00 74 999.5
20260505052250 15 226 0.0 1.6 0.00 0.00 0.00 74 999.4
20260505051311 15 171 0.0 0.0 0.00 0.00 0.00 74 999.4
20260505050333 16 51 0.0 1.6 0.00 0.00 0.00 72 999.5
20260505041341 16 217 0.0 9.7 0.00 0.00 0.00 70 999.5
20260505040353 16 215 3.2 9.7 0.00 0.00 0.00 69 999.5
20260505035409 16 181 1.6 8.0 0.00 0.00 0.00 68 999.6
20260505034421 16 160 1.6 11.3 0.00 0.00 0.00 67 999.7
20260505033434 16 254 1.6 11.3 0.00 0.00 0.00 66 999.8
20260505032413 16 219 0.0 9.7 0.00 0.00 0.00 64 999.9
20260505031423 16 236 1.6 9.7 0.00 0.00 0.00 62 1000.0
20260505030413 16 254 1.6 14.5 0.00 0.00 0.00 60 1000.1
20260505024239 17 246 0.0 9.7 0.00 0.00 0.00 56 1000.4
20260505023245 17 252 1.6 11.3 0.00 0.00 0.00 54 1000.4
20260505022245 17 203 1.6 11.3 0.00 0.00 0.00 51 1000.7
20260505020127 18 203 0.0 4.8 0.00 0.00 0.00 46 1000.7
20260505015149 18 210 0.0 4.8 0.00 0.00 0.00 44 1000.6
20260505014157 18 252 1.6 6.4 0.00 0.00 0.00 43 1000.5
20260505012006 19 174 1.6 8.0 0.00 0.00 0.00 39 1000.4
20260505005911 20 210 1.6 11.3 0.00 0.00 0.00 37 1000.4
20260505004845 20 137 3.2 16.1 0.00 0.00 0.00 36 1000.2
20260505003854 20 225 3.2 16.1 0.00 0.00 0.00 36 1000.3
20260505002851 20 169 3.2 14.5 0.00 0.00 0.00 36 1000.3
20260505001907 20 218 3.2 14.5 0.00 0.00 0.00 36 1000.4
20260505000931 21 184 3.2 11.3 0.00 0.00 0.00 36 1000.5
20260504234715 21 187 4.8 12.9 0.00 0.00 0.00 36 1000.7
20260504233722 21 227 3.2 16.1 0.00 0.00 0.00 36 1000.8
20260504232711 21 186 4.8 19.3 0.00 0.00 0.00 36 1000.8
20260504231701 21 219 4.8 19.3 0.00 0.00 0.00 36 1000.9
20260504230658 21 215 1.6 16.1 0.00 0.00 0.00 36 1000.9
20260504225630 21 235 3.2 17.7 0.00 0.00 0.00 36 1001.0
20260504224630 22 241 4.8 17.7 0.00 0.00 0.00 36 1000.9
20260504223614 22 174 4.8 20.9 0.00 0.00 0.00 36 1000.8
20260504222554 22 182 6.4 20.9 0.00 0.00 0.00 36 1001.0
20260504221613 22 230 4.8 20.9 0.00 0.00 0.00 36 1001.0
20260504220622 22 280 4.8 25.7 0.00 0.00 0.00 37 1001.0
20260504215623 22 248 6.4 25.7 0.00 0.00 0.00 36 1001.1
20260504214554 22 272 6.4 19.3 0.00 0.00 0.00 35 1000.9
20260504213519 23 219 4.8 20.9 0.00 0.00 0.00 35 1000.9
20260504212528 23 245 6.4 22.5 0.00 0.00 0.00 34 1000.6